Showing default

SHIYAN 27C, 63601

Orbit data source: Space-Track

SHIYAN 27C, 63601 is a payload satellite in SSO that was launched on Fri, 18 Apr 2025 UTC via a CHANG ZHENG 6A launch vehicle from the Taiyaun Space Center, China (TSC). Payload-class satellites include a variety of spacecraft equipped with specific instruments for various scientific and technological missions. These include communications satellites like Starlink; space stations such as the ISS; scientific satellites like the Hubble; Earth observation satellites from companies like Planet Labs, Umbra, and HawkEye 360; GPS; miniature CubeSats for education and research; and military/defense satellites.

Loading next visibility...
Identifier
63601, 2025-078C
Orbit
SSO
Last TLE update
19 hours ago
Origin
Manufacturer
CAST
Mission
Operational spacecraft
Bus & Motor
SW27, Unknown motor
Mass
300 kg wet, ~300 kg dry
Launch date (UTC)
2025-04-18 (1 month ago)
Launch vehicle
CHANG ZHENG 6A
Launch site
Taiyaun Space Center, China (TSC)
Object type
Payload
Rocket body
Debris
Shape & HBR
Unknown
Radar Cross Section
Large (>1 m²)

Expand to show TLE details & history

TLE from 19 hours ago
0 SHIYAN 27C
1 63601U 25078C   25139.87627649  .00000028  00000-0  10086-3 0  9995
2 63601  99.6919 148.0454 0000959  91.7768 268.3480 13.57200186  4185
Epoch: 2025-05-19T21:01Z
TLE epoch observation values (Epoch: 2025-05-19T21:01:50.288Z)
Latitude
-0.00005°
Longitude
-45.19673°
Altitude
1,048.701 km
Speed
7.328 km/s
True Right ascension
09h 52m 10s
True Declination
0° 00' 00"
Sunlit
Object was in daylight at epoch
Visualization orbit readout
Latitude
-57.70363°
Longitude
119.98378°
Altitude
1,068.745 km
Speed
7.317 km/s
Apparent Right ascension
16h 08m 49s
Apparent Declination
-66° 50' 21"
Sunlit
Object is in daylight
Visualization observer readout
Local Sidereal Time
00:47:31
Azimuth
209.092° SW
Elevation
-51.495°
Doppler factor
1
Orbital elements
Apogee altitude
1,043.888 km
Perigee altitude
1,042.464 km
Semi-major axis
7,421.313 km
Eccentricity
0.0001
Inclination
99.6919°
RAAN
148.0454°
Arg. of periapsis
91.7768°
True anomaly
Unknown
Mean anomaly
268.348°
Eccentric anomaly
Unknown
Mean motion
3.39486 °/min
Orbital period
106.04 mins
BSTAR
0.00010086
Loading maneuver chart data...
Loading SW <> Apogee altitude chart data...
Loading historical data...
Loading historical data...
Loading historical data...
Loading historical data...
Loading historical data...
Loading historical data...
Loading historical data...

SHIYAN 27C Visibility forecast

Observer location: undefined°, undefined°

Span
Click to sort rows by Start time (UTC) header in descending order
Start Az.
Max El. time (UTC)
Max El. Az.
Max El.
End time (UTC)
End Az.
11 mins2025-05-20 23:41:46.575Z133.825° SE2025-05-20 23:46:46.575Z70.253° E34.996°2025-05-20 23:52:46.575Z358.413° N
9 mins2025-05-21 01:27:46.575Z215.326° SW2025-05-21 01:31:46.575Z267.119° W26.487°2025-05-21 01:36:46.575Z321.852° NNW
9 mins2025-05-21 12:34:46.575Z42.228° NE2025-05-21 12:38:46.575Z93.966° ESE29.327°2025-05-21 12:43:46.575Z156.21° SSE
10 mins2025-05-21 14:18:46.575Z354.933° N2025-05-21 14:23:46.575Z288.497° WNW32.239°2025-05-21 14:28:46.575Z230.214° WSW
|